GFSSE_sfc_rhum_159.txt.gz
RH
95 92 83 77 76 75 76 77 77 77 78 78 77 76 76 75 76 77 78 78 77 77 76 76 76 74 69 67 69 71 75 75 74 68 70 76 77 77 78 77 76 73 77
87 84 82 79 76 76 78 78 78 79 79 79 79 77 76 76 76 78 78 77 76 76 74 76 75 76 71 69 68 69 71 72 69 70 72 72 75 75 76 76 76 77 76
86 85 84 82 78 79 79 77 77 77 76 75 76 76 75 76 76 76 76 77 76 76 75 75 75 74 73 71 69 69 70 71 69 68 70 86 79 76 74 71 73 74 74
85 89 86 84 80 79 78 77 76 76 74 76 76 76 75 75 77 76 76 75 75 75 75 75 74 73 73 70 68 68 68 72 73 76 83 76 72 75 73 75 76 74 76
91 90 85 79 78 76 77 76 75 74 74 77 77 75 75 76 75 75 74 75 74 74 75 76 75 73 72 74 70 70 72 70 69 68 82 87 86 74 75 76 74 73 73
92 88 80 76 75 75 76 76 75 74 71 77 76 75 75 76 75 74 75 75 73 73 69 69 69 70 68 64 62 62 64 68 70 75 83 85 88 73 73 73 72 72 74
94 91 82 78 75 75 76 74 74 72 73 77 76 75 74 74 74 75 73 72 71 71 72 72 72 72 72 68 67 67 69 70 72 82 84 92 85 80 75 75 75 74 75
93 92 87 76 75 77 74 72 70 72 74 77 76 75 75 75 76 74 73 73 72 71 71 72 73 73 71 69 66 68 72 69 69 83 82 88 88 77 70 69 71 70 71
91 92 96 90 77 73 74 74 73 73 76 76 76 75 76 76 75 74 74 72 70 72 70 71 72 70 70 70 71 72 70 74 78 88 76 90 88 78 70 71 71 71 74
88 91 92 94 95 93 89 73 72 73 75 76 75 75 75 74 75 74 79 74 70 69 68 70 70 70 71 71 71 71 72 73 77 81 90 87 86 74 71 80 76 76 76
84 87 86 86 94 92 88 80 75 75 74 77 75 74 81 90 85 80 80 72 70 70 68 70 70 72 73 74 73 71 68 82 87 85 94 85 85 74 71 75 75 70 76
91 88 80 82 86 91 85 96 95 87 92 91 95 95 96 94 93 82 79 72 70 69 70 71 72 72 74 80 84 78 91 83 85 91 92 84 84 74 69 71 73 72 76
89 83 85 86 88 92 95 98 98 93 95 97 94 95 92 88 92 94 98 93 94 82 88 84 80 80 78 82 80 81 87 87 80 85 73 80 82 74 68 73 74 73 75
86 79 81 82 89 95 97 92 92 94 95 93 91 85 87 96 95 96 97 95 94 92 89 86 88 84 78 73 76 68 73 72 76 78 79 80 83 75 72 72 74 74 75
84 79 83 86 93 96 96 94 91 89 86 90 89 86 91 96 89 87 90 91 91 89 89 88 86 85 84 77 71 73 74 71 71 78 82 76 84 82 77 74 76 75 77
77 80 83 85 90 92 92 88 87 74 82 81 87 89 82 84 86 88 86 84 86 90 92 90 91 92 82 80 71 51 62 70 64 65 75 84 85 85 80 78 79 80 77
76 80 84 83 85 89 88 81 86 71 70 79 85 82 82 86 85 91 89 92 92 90 87 79 80 78 84 66 66 54 61 64 61 60 64 77 89 83 80 78 81 83 80
74 83 86 67 81 85 79 78 71 74 73 77 81 81 78 84 86 92 93 91 91 93 86 81 85 88 73 68 68 73 70 61 58 58 62 66 84 75 84 82 78 83 81
74 78 87 82 85 79 77 85 78 72 80 80 80 78 79 78 83 87 74 75 87 94 88 85 83 88 88 71 65 70 72 72 68 58 74 75 84 88 88 76 80 78 76
71 74 80 85 89 85 79 86 89 85 82 79 81 83 79 76 79 89 90 82 84 93 93 79 78 83 90 87 64 62 75 68 70 75 78 71 83 83 88 86 88 81 82
65 72 78 83 90 91 97 97 96 93 86 78 77 77 78 81 81 85 86 87 84 91 89 77 86 85 84 85 74 73 73 78 71 67 80 85 79 77 84 80 82 85 82
61 67 74 78 82 82 81 95 88 86 82 79 78 78 76 81 81 88 88 80 81 91 88 85 86 84 87 85 80 87 79 69 74 69 82 77 85 82 78 70 78 80 82
63 69 75 80 77 74 81 93 90 87 88 90 84 81 79 78 81 87 86 81 83 90 85 89 86 87 90 89 84 77 85 83 92 83 85 86 82 87 81 76 77 75 87
62 68 72 76 81 77 86 84 86 85 87 85 84 83 76 78 78 79 81 85 84 88 91 85 86 91 90 86 90 82 87 80 84 86 81 85 78 76 80 88 78 84 83
57 67 70 76 78 77 84 82 80 85 84 84 91 88 86 81 78 77 81 81 92 86 88 86 90 91 94 94 94 94 89 95 93 92 79 75 73 78 86 92 79 90 87
56 62 68 77 76 79 84 87 83 80 82 92 93 93 94 89 83 85 81 84 84 93 92 88 87 91 94 95 96 96 94 92 93 90 93 92 85 77 88 93 90 84 92

GFSSE_sfc_rhum_162.txt.gz
RH
94 91 83 79 77 76 75 75 76 77 78 78 79 76 75 76 76 77 77 76 76 75 76 76 74 70 68 70 72 72 70 76 70 71 74 76 76 79 77 76 76 68 77
90 88 84 79 76 76 76 76 76 77 78 77 77 76 75 78 78 78 77 77 76 74 75 76 74 70 69 69 70 72 73 71 72 72 73 74 76 77 77 76 77 72 77
90 86 86 81 78 78 77 77 77 77 78 78 77 76 77 77 77 77 76 76 76 75 75 74 74 72 70 69 69 70 71 70 69 69 72 79 75 72 72 74 76 77 77
89 91 87 85 81 79 77 77 77 75 75 76 76 76 75 76 77 76 76 75 75 75 75 75 71 68 69 68 68 68 70 72 74 77 76 75 68 74 74 72 72 73 73
93 90 86 80 80 78 77 76 77 74 75 76 76 75 76 77 76 76 75 74 75 75 76 73 71 70 70 68 70 72 73 72 70 70 77 81 77 72 74 75 76 76 76
93 88 81 78 77 77 76 76 75 75 73 78 76 74 74 75 74 74 75 72 76 74 72 70 69 69 67 68 66 66 65 68 69 73 78 78 79 73 74 75 73 74 74
94 91 81 79 75 75 76 77 76 72 74 77 75 74 76 74 74 74 73 70 70 69 70 70 69 68 67 67 67 67 69 72 70 78 76 82 80 79 73 72 72 72 74
94 92 90 77 76 76 76 75 75 71 76 76 75 75 73 73 76 73 73 71 71 71 71 72 71 71 70 67 65 67 73 70 69 80 78 80 84 81 74 75 77 73 73
92 94 96 89 79 74 74 71 71 72 75 76 75 75 74 75 74 73 73 72 71 71 70 70 71 71 70 70 71 73 72 72 76 84 71 78 83 75 67 68 68 69 70
94 96 93 95 96 93 87 72 71 74 75 75 74 75 75 75 71 73 77 72 71 69 68 70 70 70 70 69 70 69 69 77 64 72 81 76 85 79 70 71 75 76 73
89 93 90 93 93 92 90 81 77 74 74 75 76 74 79 86 83 79 79 71 68 68 69 70 72 73 73 74 72 70 69 73 79 79 86 84 82 76 72 70 75 78 79
96 92 89 92 92 91 89 98 96 96 94 95 98 96 96 92 90 81 78 70 68 69 71 74 76 76 77 74 73 75 85 77 75 86 84 84 77 76 74 72 72 75 76
90 83 81 88 90 93 97 98 99 98 96 95 94 94 90 87 88 90 92 91 94 80 82 77 77 75 75 72 75 85 81 78 69 72 73 82 79 77 74 76 75 75 76
89 81 80 80 89 94 98 98 98 95 91 90 92 88 88 89 90 92 93 90 89 85 84 80 77 79 78 76 70 68 66 68 67 72 74 80 80 76 72 77 75 77 77
89 82 82 82 91 92 95 97 97 88 86 91 91 85 87 90 91 89 90 87 86 86 86 84 81 80 82 76 72 74 70 68 67 71 72 76 83 80 73 75 77 77 77
86 84 84 87 91 91 94 91 92 86 86 84 85 86 85 89 87 88 84 83 83 87 90 88 83 88 79 76 76 69 58 64 68 69 68 73 81 83 78 79 77 80 77
84 82 86 88 88 92 91 88 91 80 78 80 83 83 85 85 87 89 86 87 89 90 88 84 80 78 77 65 69 63 61 62 62 66 65 64 76 83 80 78 80 84 81
80 86 87 71 83 89 89 84 80 75 78 80 84 86 81 85 87 91 91 88 89 88 85 81 81 82 76 72 70 69 68 65 63 64 60 59 69 64 83 82 83 84 77
80 86 89 84 85 86 85 84 77 73 81 80 83 84 82 80 84 88 77 80 84 94 84 80 79 82 82 75 65 68 67 69 68 56 65 66 73 78 78 76 80 80 76
79 84 87 87 86 88 83 86 90 82 83 84 87 85 81 78 81 86 84 80 81 92 88 76 78 82 83 82 59 60 67 67 67 66 70 64 75 74 77 80 85 73 81
78 84 89 91 92 91 92 89 92 86 84 83 80 82 84 81 80 86 86 87 85 86 85 78 82 81 81 81 77 72 71 69 66 62 69 76 71 67 72 74 76 76 68
76 81 86 88 92 90 90 91 87 85 83 81 81 80 80 83 84 86 87 85 82 86 87 85 84 81 81 82 79 79 77 70 68 62 81 71 73 73 69 67 74 76 71
72 78 79 83 87 88 89 92 91 88 87 87 86 81 80 82 85 88 88 85 83 87 89 84 84 84 81 81 83 78 79 80 78 75 77 75 74 75 72 71 68 69 78
65 68 74 80 84 85 90 91 92 90 87 87 84 84 80 80 80 85 87 85 85 86 89 84 83 91 87 81 84 76 83 77 77 82 78 76 71 70 76 81 69 72 74
58 64 71 82 84 82 85 86 89 91 87 85 86 85 86 84 82 79 85 85 88 86 88 87 86 89 89 86 94 86 84 92 89 91 75 73 71 68 74 83 71 77 78
55 63 70 85 87 86 86 88 89 89 86 92 89 89 92 89 84 83 81 86 86 88 90 86 87 89 89 91 88 94 94 90 86 83 92 80 75 71 69 76 78 84 85

GFSSE_sfc_rhum_165.txt.gz
RH
81 73 82 77 76 75 75 76 79 78 79 78 78 76 73 73 74 75 76 74 77 76 76 75 71 69 70 72 73 69 73 72 72 73 74 75 76 76 76 75 75 51 75
72 80 83 79 76 76 75 76 77 79 77 78 77 75 74 75 76 77 76 75 75 75 76 72 70 70 70 72 71 72 71 73 73 72 72 76 76 77 77 75 68 60 75
59 69 75 82 77 77 76 76 77 77 77 77 76 75 76 76 76 75 75 76 75 74 73 74 71 70 70 70 71 71 71 71 71 71 76 54 54 74 75 76 76 76 76
55 62 68 85 82 78 76 78 76 75 77 77 78 76 76 76 75 74 74 75 74 74 73 72 70 69 69 69 69 70 73 73 73 73 52 52 50 72 70 72 76 76 76
59 60 61 81 78 79 76 77 76 75 76 78 77 74 75 76 75 74 75 74 74 74 73 70 70 69 69 69 71 73 73 72 70 57 55 59 50 66 75 74 72 73 71
62 58 71 79 78 79 77 78 75 74 76 77 77 75 75 74 74 73 72 73 75 74 72 71 70 70 69 68 68 66 64 66 68 55 56 62 59 76 76 74 70 70 74
66 69 65 81 78 78 80 76 75 74 76 77 75 75 76 74 73 74 73 74 71 70 70 70 69 67 64 63 65 66 70 72 58 60 59 59 63 75 73 73 72 71 71
61 58 83 75 77 77 76 76 75 71 76 76 74 77 74 74 75 74 70 68 68 69 68 69 67 67 67 65 64 66 72 70 52 59 61 54 74 74 70 71 72 73 72
63 67 74 64 68 76 78 76 74 71 74 74 74 74 75 76 74 73 70 69 68 69 69 69 68 69 68 68 69 70 71 70 52 58 55 51 82 70 63 67 67 69 69
64 68 65 73 68 72 82 70 69 74 77 74 77 76 77 75 73 73 74 70 69 69 69 70 69 70 72 70 69 67 67 75 43 50 52 48 82 76 66 68 72 75 72
68 62 58 62 66 78 77 74 72 71 72 75 74 75 72 62 61 61 72 69 68 69 68 69 70 72 74 73 72 68 67 39 42 46 47 79 81 79 70 71 70 70 72
63 66 57 58 59 64 69 84 87 94 96 93 84 82 82 72 66 57 64 70 70 70 72 74 73 70 62 42 41 59 42 45 45 46 47 80 77 74 71 72 74 72 74
58 57 62 64 69 69 85 85 98 98 98 95 82 91 71 69 66 55 56 56 61 66 48 50 46 43 50 46 45 42 44 47 41 42 52 84 80 74 70 70 75 76 73
61 63 70 62 70 74 83 93 98 98 95 89 75 73 72 62 63 65 55 58 60 50 56 54 48 56 56 54 47 47 44 40 38 40 49 82 82 78 72 72 72 72 74
61 63 59 63 73 76 83 95 98 88 73 76 68 74 61 58 64 63 60 54 55 52 53 56 56 55 56 50 47 50 46 40 43 40 42 77 82 79 75 71 75 78 77
62 61 62 67 68 72 80 93 93 80 65 73 64 74 73 61 65 58 59 53 51 54 54 58 58 59 53 45 48 49 43 39 47 50 42 47 80 81 78 72 74 79 78
60 61 62 61 61 70 74 82 80 72 56 80 70 70 73 65 67 71 60 57 55 61 64 58 57 53 47 41 46 43 39 43 40 47 45 42 44 79 79 76 81 83 79
56 65 64 54 59 65 67 68 69 69 58 66 66 62 66 68 70 72 62 56 60 59 57 52 52 51 52 45 44 44 43 42 45 44 42 43 42 38 62 79 83 84 79
57 64 66 64 64 68 73 64 63 66 82 60 60 60 66 64 66 65 56 53 65 63 56 52 49 56 54 48 40 41 42 42 44 36 47 49 48 46 41 64 74 78 78
57 63 65 64 69 73 68 69 61 57 77 62 72 67 66 60 66 64 57 61 61 61 53 50 64 55 56 55 42 37 41 41 42 41 40 39 48 50 46 54 53 50 79
57 64 68 70 74 70 70 63 68 71 76 77 82 69 70 65 64 70 58 64 64 64 65 63 58 60 48 57 53 42 42 41 37 41 43 39 43 44 46 49 52 65 58
56 63 69 70 75 73 69 83 80 82 71 74 81 76 66 65 65 62 69 63 65 60 70 68 69 54 53 58 54 54 46 39 41 39 45 42 46 44 44 50 56 61 74
56 63 68 72 73 73 72 68 81 78 85 76 64 60 59 65 63 67 69 68 67 66 58 66 65 69 52 55 66 63 55 47 49 43 46 42 52 47 48 52 50 51 70
52 56 63 71 72 70 76 69 74 57 54 77 58 55 58 65 64 63 66 70 72 59 69 64 59 67 69 71 53 50 65 70 77 45 42 42 44 44 55 46 44 48 60
49 53 57 69 74 68 75 73 67 67 56 55 55 68 70 69 65 61 68 70 71 61 67 71 70 73 62 58 73 56 64 57 66 85 49 44 39 40 45 49 47 45 55
47 51 55 69 74 71 73 74 76 72 69 62 61 58 56 55 57 68 64 69 70 66 69 64 71 72 70 68 60 82 72 62 57 73 63 52 48 44 40 46 49 50 53

GFSSE_sfc_rhum_168.txt.gz
RH
56 77 82 78 76 78 77 76 76 78 78 76 75 74 72 72 73 75 74 74 75 75 74 72 70 70 70 72 70 72 72 73 73 73 75 75 74 75 75 75 73 46 72
49 65 83 80 76 76 76 77 77 76 76 75 73 72 72 73 74 74 76 75 75 75 71 70 71 70 72 70 70 71 71 72 72 72 74 74 75 75 74 69 66 60 71
39 59 62 82 78 76 76 76 76 76 75 74 74 74 74 74 75 74 75 74 75 74 72 70 70 70 71 71 71 71 72 72 71 72 68 49 48 75 73 72 72 76 73
38 58 54 85 82 76 76 77 77 76 76 77 76 74 74 76 75 73 74 73 74 74 72 70 69 69 70 70 70 72 73 72 71 69 43 38 38 71 74 76 74 74 75
37 39 70 82 83 76 77 76 75 75 74 76 76 74 73 74 74 73 73 74 73 73 70 69 69 69 69 70 71 72 72 69 66 57 38 42 36 63 70 71 73 74 73
38 35 74 74 79 77 76 76 75 75 75 76 74 75 76 76 74 74 73 75 74 72 72 71 70 69 68 68 65 63 64 67 72 39 38 49 52 71 72 71 68 69 71
42 36 48 79 75 76 76 77 74 72 75 76 74 75 74 73 74 72 75 73 71 70 70 69 67 65 64 64 64 64 72 71 48 45 41 44 48 73 71 71 71 71 71
44 42 58 72 79 78 76 75 75 72 70 75 76 76 75 74 76 72 71 69 69 69 69 68 67 66 66 63 63 65 70 67 48 45 45 43 68 72 66 68 69 69 71
45 50 76 57 58 75 77 78 77 75 76 76 78 73 74 74 73 70 70 68 66 67 67 67 67 67 66 64 65 66 69 68 42 43 38 38 79 62 62 68 68 70 69
46 50 55 63 62 55 83 76 76 72 69 74 77 75 75 72 72 72 73 70 67 67 67 67 67 68 69 69 68 66 65 72 31 39 37 39 77 75 62 69 71 74 70
46 42 41 45 66 70 73 61 67 74 69 73 68 72 71 52 52 50 70 70 68 67 67 67 68 70 72 74 71 67 67 31 29 30 32 74 72 72 68 67 67 68 70
42 42 43 45 47 50 51 65 62 66 92 88 65 62 73 60 45 40 58 69 68 68 69 71 70 67 65 30 34 62 34 31 33 30 30 77 74 70 68 70 72 72 72
37 38 40 45 49 52 58 54 53 62 93 94 64 69 67 48 41 36 42 44 43 64 38 45 44 34 38 34 32 29 31 31 27 27 48 82 78 74 71 70 70 73 77
40 40 40 45 52 52 53 54 85 92 94 95 70 66 54 45 43 42 36 40 45 36 43 41 34 43 42 40 33 34 31 28 26 24 44 80 81 78 76 73 73 71 71
43 44 51 48 59 60 65 80 96 92 91 89 75 64 44 41 45 41 44 38 39 38 38 42 41 39 41 35 32 34 30 29 32 26 28 78 81 80 77 74 73 75 76
47 49 47 47 59 60 65 79 81 84 57 75 60 47 55 40 46 39 41 38 39 39 39 41 42 42 38 30 32 35 33 28 34 38 28 40 78 81 80 76 72 73 75
42 50 56 48 49 59 66 73 77 80 46 48 49 68 60 49 56 53 42 42 40 45 50 43 42 39 33 29 33 29 28 30 27 35 32 30 41 83 78 76 77 80 78
41 49 51 44 44 50 61 72 61 49 48 54 50 49 52 55 58 61 44 40 42 46 39 36 36 35 33 30 31 29 28 28 34 33 31 33 31 29 69 79 83 83 79
42 50 51 49 47 50 56 54 69 62 50 67 68 45 57 54 54 50 42 41 50 42 39 36 36 41 36 32 27 27 28 28 30 24 34 36 36 36 30 77 79 76 75
41 48 51 49 54 57 67 55 47 47 49 49 44 44 54 48 53 52 42 49 47 41 38 38 51 41 43 39 28 26 28 28 29 29 30 28 33 38 33 42 48 64 80
40 48 53 55 60 68 61 52 48 49 62 49 46 57 57 52 54 60 41 50 50 48 52 49 42 45 35 39 38 29 28 28 28 30 31 30 33 32 34 36 40 49 62
42 49 55 57 63 61 52 51 49 51 65 46 48 64 55 53 54 53 55 48 53 42 57 56 56 40 37 41 41 37 39 33 28 28 31 31 36 32 32 37 44 52 60
41 48 55 60 64 63 59 57 72 68 74 57 54 69 50 54 52 56 56 55 56 53 43 53 51 55 42 38 50 44 43 36 32 28 36 31 39 33 35 37 40 42 59
38 43 52 59 62 60 63 66 65 75 51 76 53 58 49 53 53 50 53 57 61 46 55 49 46 52 56 42 37 33 49 53 47 40 29 31 31 30 41 32 32 39 50
35 40 45 59 64 60 65 62 58 60 42 42 40 51 61 56 55 48 53 56 59 50 53 57 56 60 46 46 41 37 42 38 46 50 43 33 28 26 28 32 33 33 42
31 37 42 59 67 62 64 64 66 63 53 46 49 46 43 41 45 55 52 58 58 54 56 53 59 60 59 53 45 44 40 37 38 38 39 38 34 30 28 30 34 34 38

GFSSE_sfc_rhum_171.txt.gz
RH
66 72 83 74 75 76 76 76 75 76 78 74 77 75 72 73 74 73 73 74 76 74 71 70 70 69 70 70 72 72 72 72 73 74 73 72 74 75 75 73 75 55 73
52 57 83 79 77 77 77 75 76 76 77 75 72 70 71 74 75 74 72 75 74 72 71 71 71 72 72 70 72 71 72 72 72 72 74 73 73 74 72 72 80 66 71
43 56 69 82 77 77 78 75 74 75 74 74 73 73 72 73 75 74 72 73 73 71 71 71 71 72 71 71 71 72 72 71 69 69 70 52 50 74 71 74 74 74 71
37 51 50 85 80 76 76 74 75 74 74 76 74 74 73 74 73 74 72 72 74 73 71 70 70 70 70 71 72 73 72 69 69 68 69 43 38 76 75 75 74 76 75
40 58 61 81 81 76 76 77 76 74 76 76 75 72 74 72 73 73 72 72 72 70 70 69 69 69 69 70 71 72 69 66 66 61 33 45 95 64 71 74 73 74 70
33 39 76 80 77 76 75 75 74 73 74 74 72 73 75 73 72 72 74 72 72 71 71 70 70 69 68 67 64 63 65 70 70 37 35 42 56 73 72 68 66 68 70
37 39 62 80 78 78 77 75 74 74 72 65 72 73 73 73 72 74 74 72 71 70 70 68 66 64 62 63 62 63 70 72 52 41 39 41 52 73 71 69 69 69 70
44 44 51 69 74 78 78 74 73 70 75 74 72 73 72 74 74 74 71 69 70 69 69 67 64 64 63 62 62 65 68 70 47 39 40 39 71 68 66 68 68 69 71
46 50 48 48 70 74 74 71 71 67 71 73 72 72 72 73 70 69 68 68 67 68 66 64 64 64 63 62 63 62 66 73 47 40 45 36 74 62 64 65 69 69 68
54 43 46 48 54 78 74 76 67 63 70 70 74 73 74 71 70 69 73 68 66 64 63 63 64 63 66 66 68 66 69 77 60 38 34 45 78 71 64 70 68 69 66
55 44 40 45 76 83 82 78 68 65 67 70 70 72 69 45 51 54 68 68 66 65 65 65 63 64 69 74 75 73 73 42 53 32 38 76 77 71 65 66 67 72 84
47 48 67 65 65 76 75 85 76 60 78 74 64 60 56 70 45 39 58 67 66 67 66 67 68 71 70 39 54 74 42 32 26 23 44 78 75 68 69 72 75 87 81
46 50 48 50 68 54 74 70 52 56 80 93 61 79 55 51 37 32 42 44 42 60 46 54 51 47 38 35 28 65 37 31 40 77 56 79 77 72 70 69 70 70 71
38 42 51 49 57 54 54 45 48 63 85 91 60 62 77 42 34 33 32 35 39 34 40 38 38 38 37 36 33 24 23 20 23 34 53 81 80 76 74 74 71 71 70
37 41 50 55 66 63 55 52 66 79 80 84 60 51 62 42 38 35 35 35 36 31 34 36 34 36 36 45 35 28 26 27 28 33 52 79 81 78 76 75 73 73 74
45 48 45 53 64 62 62 70 68 69 90 63 68 62 47 52 42 34 39 35 34 31 31 34 38 38 33 28 31 30 28 26 33 33 38 49 80 80 79 77 74 71 70
45 50 43 55 53 55 67 72 65 75 77 78 67 54 54 48 47 43 36 35 32 39 44 40 38 34 34 27 33 27 26 25 28 31 29 31 52 82 79 76 75 76 74
50 51 46 45 49 52 62 68 63 78 58 66 44 46 50 49 48 58 37 36 39 40 31 30 28 28 34 36 26 24 24 24 29 31 39 31 28 30 72 79 79 81 78
41 58 58 51 48 56 67 63 66 60 48 42 49 59 49 46 46 52 35 36 45 33 32 30 36 33 50 31 26 26 33 39 27 32 29 32 33 32 32 78 82 82 70
35 40 46 49 64 66 72 67 52 46 45 44 74 42 51 42 44 52 35 44 45 32 53 35 48 44 37 45 24 21 22 28 26 36 26 30 31 35 31 40 75 70 76
36 43 46 48 73 67 68 59 58 58 56 47 37 44 52 47 47 56 36 46 47 47 62 46 46 50 46 77 50 83 39 27 30 26 25 37 35 30 31 37 71 64 86
37 44 50 51 74 71 61 56 60 58 44 44 38 52 50 49 50 50 59 48 48 39 53 52 52 48 43 50 36 34 95 83 90 30 24 33 32 44 43 40 42 52 74
37 44 50 55 63 65 70 64 67 67 52 51 48 51 52 51 50 54 53 58 55 54 76 55 50 54 47 75 44 40 44 59 40 46 33 26 33 66 46 38 38 53 56
33 40 49 55 58 59 74 61 71 56 55 50 47 45 44 52 50 47 52 54 59 47 72 48 43 56 54 52 36 33 46 49 41 36 33 64 26 41 34 39 50 70 51
30 36 44 57 64 63 65 65 57 61 45 41 40 59 62 58 52 48 52 55 58 51 53 57 57 57 59 44 36 33 44 36 46 42 39 62 35 38 27 36 60 63 56
28 34 40 58 68 64 64 62 69 68 62 43 48 44 46 40 45 54 48 56 59 56 56 50 58 60 60 60 50 47 35 35 34 34 35 36 30 28 45 24 42 48 49

GFSSE_sfc_rhum_174.txt.gz
RH
71 82 83 77 76 76 75 78 80 81 80 77 76 76 75 73 74 75 76 76 76 76 73 71 69 68 71 71 74 74 74 74 75 74 74 75 77 77 75 78 72 62 78
63 72 78 76 76 77 77 78 80 81 80 78 75 72 74 73 74 73 76 74 75 75 73 73 73 73 71 72 72 72 72 73 74 74 73 74 74 74 73 72 58 71 76
56 61 73 83 79 78 77 78 78 77 76 74 74 74 74 74 73 73 74 74 74 75 72 73 73 71 71 72 72 72 71 71 73 70 84 82 70 72 72 75 64 74 75
47 57 65 84 82 78 79 78 77 73 75 76 74 75 75 73 74 72 72 74 74 74 73 71 72 71 71 71 72 72 68 67 68 84 90 84 66 73 73 70 73 72 72
46 53 68 84 82 79 78 75 77 76 76 75 72 73 73 73 74 72 73 73 72 74 74 71 70 70 70 71 72 70 67 64 69 82 88 88 86 72 75 75 74 72 70
47 55 78 82 78 80 79 76 74 75 77 74 72 72 72 72 72 73 72 72 70 72 71 71 70 70 70 68 65 65 67 73 71 62 85 81 84 72 71 70 68 71 72
50 60 69 82 81 80 78 75 74 72 64 69 71 71 72 72 73 74 73 72 72 72 71 69 67 64 62 63 64 66 71 73 67 58 51 67 74 78 71 70 71 71 71
53 55 76 79 79 80 76 75 74 74 70 72 71 73 73 73 74 73 71 70 71 70 69 66 64 63 63 62 63 65 73 73 67 52 53 59 79 77 72 72 72 72 73
52 54 63 62 74 76 75 74 72 70 70 71 72 73 74 74 74 71 70 69 69 68 67 64 64 64 65 70 72 72 73 67 83 81 52 66 81 75 70 71 71 72 73
55 91 52 64 68 81 76 70 67 70 71 69 72 73 74 72 69 68 73 70 67 65 64 63 64 70 72 74 75 73 73 79 83 93 67 62 75 70 71 71 72 70 72
56 88 45 61 84 85 88 73 69 68 71 68 71 72 78 64 66 63 68 68 65 65 64 66 71 74 75 82 78 74 72 89 87 90 68 77 80 71 72 72 72 76 75
61 55 69 78 94 88 69 87 87 76 85 78 80 77 87 84 61 53 64 67 67 69 69 74 76 77 72 90 80 76 92 94 91 85 67 82 79 70 69 71 73 78 76
56 56 93 95 84 90 77 84 96 72 75 82 82 84 98 93 56 48 62 61 67 70 59 60 60 62 57 95 89 90 92 90 93 87 62 79 79 76 73 78 80 82 76
47 64 85 91 86 87 80 88 91 74 82 87 91 82 91 88 56 57 54 58 64 56 66 80 85 88 63 73 79 84 60 67 85 82 71 83 81 78 72 73 76 73 70
50 54 64 65 85 82 83 75 73 80 84 86 73 68 66 71 57 56 60 57 77 66 70 70 89 61 62 69 69 62 41 41 65 61 84 78 84 82 78 77 75 74 75
57 53 50 58 70 72 85 78 76 71 77 77 74 66 71 70 66 57 57 58 60 69 70 60 61 63 60 66 66 49 40 44 57 61 71 76 84 84 82 78 77 75 72
40 52 61 57 57 80 75 75 70 79 72 68 74 78 73 65 66 77 64 65 62 66 64 61 61 59 54 47 55 44 41 41 47 56 56 63 73 84 83 82 82 80 75
46 56 58 46 55 72 72 76 69 72 73 89 93 73 66 66 66 72 68 70 69 62 63 63 63 56 59 56 52 50 43 44 42 48 63 52 59 67 87 82 82 82 79
47 58 54 60 61 71 77 76 73 77 80 92 80 60 69 66 61 73 71 81 71 62 57 60 61 63 61 62 55 48 46 58 52 38 50 50 53 72 84 75 80 82 77
52 56 56 60 73 80 78 80 78 75 79 93 66 65 68 64 65 72 83 79 68 74 76 72 77 66 72 62 44 48 66 62 58 49 46 47 52 54 71 71 84 78 80
52 60 62 62 73 77 88 75 74 68 69 69 68 69 68 66 62 71 70 66 69 83 89 68 69 68 66 72 77 84 83 84 76 62 52 52 76 81 88 82 90 73 78
42 52 64 68 75 72 71 80 70 65 68 63 64 68 63 64 64 65 75 71 71 72 86 84 76 78 88 70 75 74 92 94 87 59 53 51 69 85 84 74 83 79 75
45 53 58 70 74 72 76 83 86 85 81 66 69 64 63 66 62 69 73 74 88 81 94 89 82 77 80 78 71 74 85 99 76 61 58 72 65 91 88 91 92 87 76
43 48 59 65 74 71 82 82 82 89 73 64 66 66 63 67 67 64 70 72 90 88 88 83 70 78 76 78 66 47 65 69 74 71 65 67 54 55 69 69 91 96 75
38 44 54 66 77 73 78 80 74 86 87 63 60 75 74 74 70 64 73 73 76 74 81 83 76 87 80 76 74 70 66 61 72 76 73 65 70 60 62 60 83 92 91
34 41 51 69 75 74 77 77 77 78 72 66 66 66 66 60 63 71 67 76 77 76 77 75 76 75 79 81 77 77 70 69 66 65 67 67 56 57 52 54 63 74 87